This is the latest recevied weather packets stored in our database for station/object KJ7HSW. If no packets are shown the sender has not sent any weather packets the latest 1 day(s).
| Time | Temp. | Humidity | Pressure | Rain* | Wind** | Luminosity | Snow |
|---|---|---|---|---|---|---|---|
| 1777986149 | 8.89° C | 94% | 1013.8 hPa | 0 mm | 1.34 m/s, 225° | 11 W/m² | - |
| 1777985845 | 8.89° C | 94% | 1013.8 hPa | 0 mm | 1.79 m/s, 230° | 9 W/m² | - |
| 1777985542 | 8.89° C | 94% | 1013.7 hPa | 0 mm | 1.34 m/s, 220° | 7 W/m² | - |
| 1777985239 | 8.89° C | 93% | 1013.5 hPa | 0 mm | 1.34 m/s, 213° | 4 W/m² | - |
| 1777984936 | 8.89° C | 93% | 1013.3 hPa | 0 mm | 1.34 m/s, 185° | 3 W/m² | - |
| 1777984631 | 8.89° C | 93% | 1013.5 hPa | 0 mm | 1.34 m/s, 184° | 2 W/m² | - |
| 1777984329 | 8.89° C | 93% | 1013.2 hPa | 0 mm | 0.89 m/s, 206° | 1 W/m² | - |
| 1777984025 | 8.89° C | 93% | 1013.3 hPa | 0 mm | 1.34 m/s, 208° | 0 W/m² | - |
| 1777983722 | 8.89° C | 93% | 1013.2 hPa | 0 mm | 1.34 m/s, 192° | 0 W/m² | - |
| 1777983419 | 8.89° C | 94% | 1013.2 hPa | 0 mm | 1.34 m/s, 184° | 0 W/m² | - |
| 1777983115 | 8.89° C | 94% | 1013.2 hPa | 0 mm | 1.34 m/s, 216° | 0 W/m² | - |
| 1777982811 | 8.89° C | 94% | 1013.2 hPa | 0 mm | 1.34 m/s, 212° | 0 W/m² | - |
| 1777982508 | 8.89° C | 94% | 1013.1 hPa | 0 mm | 1.34 m/s, 213° | 0 W/m² | - |
| 1777982201 | 8.89° C | 94% | 1012.9 hPa | 0 mm | 1.34 m/s, 206° | 0 W/m² | - |
| 1777981899 | 8.89° C | 93% | 1012.9 hPa | 0 mm | 1.34 m/s, 197° | 0 W/m² | - |
| 1777981596 | 9.44° C | 93% | 1013 hPa | 0 mm | 1.34 m/s, 212° | 0 W/m² | - |
| 1777981292 | 9.44° C | 93% | 1012.9 hPa | 0 mm | 1.79 m/s, 212° | 0 W/m² | - |
| 1777980989 | 9.44° C | 93% | 1012.9 hPa | 0 mm | 1.34 m/s, 208° | 0 W/m² | - |
| 1777980686 | 9.44° C | 93% | 1012.9 hPa | 0 mm | 1.34 m/s, 200° | 0 W/m² | - |
| 1777980382 | 9.44° C | 92% | 1012.6 hPa | 0 mm | 0.89 m/s, 225° | 0 W/m² | - |
| 1777980080 | 9.44° C | 93% | 1012.6 hPa | 0 mm | 0.89 m/s, 184° | 0 W/m² | - |
| 1777979774 | 9.44° C | 93% | 1012.8 hPa | 0 mm | 1.34 m/s, 189° | 0 W/m² | - |
| 1777979470 | 9.44° C | 92% | 1012.7 hPa | 0 mm | 1.34 m/s, 186° | 0 W/m² | - |
| 1777979166 | 10° C | 92% | 1012.5 hPa | 0 mm | 1.34 m/s, 207° | 0 W/m² | - |
| 1777978864 | 10° C | 92% | 1012.6 hPa | 0 mm | 1.34 m/s, 214° | 0 W/m² | - |
* Rain latest hour (hover to see other rain measurements)
** Current wind speed in m/s (hover to see current wind gust speed)